This demonstration page uses our WeatherBlox Daily Observations layout. Learn more.

40.92945, -100.16068

Hourly Observations for December 25, 2018

Temp ( °F °C ) Dew Point ( °F °C ) Humidity (%) Winds ( mph kmh ) Pressure ( in mb ) Visibility ( mi km ) Precip ( " mm )
12:15 am 00:15 Clear 23 -5 21 -6.2 91 91 Calm 30.15 1021 7 11.26538 0 0
12:35 am 00:35 Clear with Mist and Fog 23 -4.9 22 -5.8 94 94 Calm 30.15 1021 3 4.82802 0 0
12:55 am 00:55 Clear with Mist and Fog 22 -5.5 20 -6.6 92 92 Calm 30.18 1022 4 6.43736 0 0
1:15 am 01:15 Mostly Cloudy with Mist and Fog 22 -5.8 20 -6.9 92 92 Calm 30.18 1022 1.5 2.41401 0 0
1:35 am 01:35 Mostly Cloudy with Mist and Fog 21 -6 19 -7.1 92 92 Calm 30.21 1023 2 3.21868 0 0
1:55 am 01:55 Partly Cloudy with Mist and Fog 22 -5.4 20 -6.5 92 92 WNW 3 6 30.21 1023 3 4.82802 0 0
2:15 am 02:15 Clear 22 -5.5 20 -6.6 92 92 WNW 6 9 30.21 1023 10 16.0934 0 0
2:35 am 02:35 Clear 22 -5.6 20 -6.7 92 92 Calm 30.21 1023 10 16.0934 0 0
2:55 am 02:55 Clear 22 -5.5 20 -6.7 91 91 Calm 30.21 1023 10 16.0934 0 0
3:15 am 03:15 Clear 21 -6 19 -7.2 91 91 Calm 30.21 1023 10 16.0934 0 0
3:35 am 03:35 Clear 21 -6 19 -7.2 91 91 Calm 30.21 1023 10 16.0934 0 0
3:55 am 03:55 Clear 21 -6 19 -7.1 92 92 Calm 30.21 1023 10 16.0934 0 0
4:15 am 04:15 Clear 22 -5.4 20 -6.5 92 92 WNW 3 6 30.21 1023 10 16.0934 0 0
4:35 am 04:35 Clear 23 -5.1 21 -6.3 91 91 W 3 6 30.21 1023 10 16.0934 0 0
4:55 am 04:55 Clear 22 -5.6 20 -6.9 91 91 W 5 7 30.21 1023 10 16.0934 0 0
5:15 am 05:15 Clear 22 -5.6 20 -6.8 91 91 Calm 30.21 1023 10 16.0934 0 0
5:35 am 05:35 Clear 21 -6.3 19 -7.5 91 91 Calm 30.21 1023 10 16.0934 0 0
5:55 am 05:55 Clear 20 -6.5 18 -7.9 90 90 N 6 9 30.21 1023 10 16.0934 0 0
6:15 am 06:15 Clear 19 -7 17 -8.5 89 89 NW 3 6 30.21 1023 10 16.0934 0 0
6:35 am 06:35 Clear 19 -7 17 -8.5 89 89 WNW 3 6 30.21 1023 10 16.0934 0 0
6:55 am 06:55 Clear 20 -6.8 17 -8.2 90 90 W 6 9 30.24 1024 10 16.0934 0 0
7:15 am 07:15 Clear 21 -6.3 18 -7.6 91 91 W 7 11 30.24 1024 10 16.0934 0 0
7:35 am 07:35 Clear 21 -5.9 19 -7.3 90 90 WNW 5 7 30.24 1024 10 16.0934 0 0
7:55 am 07:55 Clear 21 -6.1 18 -7.6 89 89 W 5 7 30.24 1024 10 16.0934 0 0
8:15 am 08:15 Sunny 22 -5.8 19 -7.3 89 89 WNW 3 6 30.27 1025 10 16.0934 0 0
8:35 am 08:35 Sunny 22 -5.5 19 -7 89 89 Calm 30.27 1025 10 16.0934 0 0
8:55 am 08:55 Sunny 24 -4.5 21 -6.1 89 89 Calm 30.27 1025 10 16.0934 0 0
9:15 am 09:15 Sunny 25 -3.7 22 -5.5 87 87 NNW 3 6 30.24 1024 10 16.0934 0 0
9:35 am 09:35 Sunny 26 -3.2 23 -5 88 88 N 3 6 30.24 1024 10 16.0934 0 0
9:55 am 09:55 Sunny 27 -2.8 24 -4.7 87 87 NE 3 6 30.24 1024 10 16.0934 0 0
10:15 am 10:15 Sunny 28 -2 25 -3.7 88 88 Calm 30.24 1024 10 16.0934 0 0
10:35 am 10:35 Sunny 30 -1 27 -3 86 86 S 7 11 30.21 1023 10 16.0934 0 0
10:55 am 10:55 Sunny 32 -0.1 28 -2.2 86 86 SSW 5 7 30.21 1023 10 16.0934 0 0
11:15 am 11:15 Sunny 33 0.6 28 -2 83 83 Calm 30.21 1023 10 16.0934 0 0
11:35 am 11:35 Sunny 35 1.7 29 -1.6 79 79 Calm 30.18 1022 10 16.0934 0 0
11:55 am 11:55 Sunny 37 2.8 29 -1.4 74 74 Calm 30.18 1022 10 16.0934 0 0
12:15 pm 12:15 Sunny 38 3.4 29 -1.8 69 69 Calm 30.18 1022 10 16.0934 0 0
12:35 pm 12:35 Sunny 41 4.9 30 -1.1 65 65 S 6 9 30.12 1020 10 16.0934 0 0
12:55 pm 12:55 Sunny 42 5.8 31 -0.8 63 63 SSE 8 13 30.12 1020 10 16.0934 0 0
1:15 pm 13:15 Sunny 43 6.2 31 -0.4 63 63 SSE 7 11 30.12 1020 10 16.0934 0 0
1:35 pm 13:35 Sunny 43 6.3 31 -0.5 62 62 SE 7 11 30.12 1020 10 16.0934 0 0
1:55 pm 13:55 Sunny 44 6.7 31 -0.4 61 61 SSE 5 7 30.12 1020 10 16.0934 0 0
2:15 pm 14:15 Sunny 43 6.2 29 -1.6 58 58 SE 5 7 30.12 1020 10 16.0934 0 0
2:35 pm 14:35 Sunny 44 6.4 32 -0.2 63 63 SE 8 13 30.12 1020 10 16.0934 0 0
2:55 pm 14:55 Sunny 44 6.7 32 -0.1 62 62 SE 8 13 30.12 1020 10 16.0934 0 0
3:15 pm 15:15 Sunny 44 6.7 31 -0.5 60 60 SE 8 13 30.12 1020 10 16.0934 0 0
3:35 pm 15:35 Sunny 44 6.7 32 -0.1 62 62 SE 6 9 30.12 1020 10 16.0934 0 0
3:55 pm 15:55 Sunny 44 6.5 33 0.5 66 66 ESE 8 13 30.12 1020 10 16.0934 0 0
4:15 pm 16:15 Sunny 43 6.3 33 0.6 67 67 ESE 8 13 30.12 1020 10 16.0934 0 0
4:35 pm 16:35 Sunny 41 5 33 0.5 73 73 SE 9 15 30.12 1020 10 16.0934 0 0
4:55 pm 16:55 Sunny 40 4.7 33 0.3 73 73 SE 6 9 30.12 1020 10 16.0934 0 0
5:15 pm 17:15 Sunny 38 3.3 32 0 79 79 ESE 7 11 30.15 1021 10 16.0934 0 0
5:35 pm 17:35 Clear 38 3.2 32 0 80 80 ESE 8 13 30.15 1021 10 16.0934 0 0
5:55 pm 17:55 Clear 36 2.2 31 -0.4 83 83 ESE 7 11 30.15 1021 10 16.0934 0 0
6:15 pm 18:15 Clear 35 1.8 31 -0.5 85 85 ESE 6 9 30.18 1022 10 16.0934 0 0
6:35 pm 18:35 Clear 35 1.5 31 -0.5 87 87 ESE 5 7 30.21 1023 10 16.0934 0 0
6:55 pm 18:55 Partly Cloudy 34 1.3 31 -0.5 88 88 ESE 7 11 30.21 1023 10 16.0934 0 0
7:15 pm 19:15 Partly Cloudy 34 1 31 -0.5 90 90 E 9 15 30.21 1023 10 16.0934 0 0
7:35 pm 19:35 Partly Cloudy 33 0.7 31 -0.5 92 92 E 8 13 30.21 1023 7 11.26538 0 0
7:55 pm 19:55 Partly Cloudy 33 0.6 32 -0.2 94 94 E 9 15 30.21 1023 7 11.26538 0 0
8:15 pm 20:15 Mostly Cloudy with Mist and Fog 33 0.5 31 -0.3 94 94 E 8 13 30.21 1023 5 8.0467 0 0
8:35 pm 20:35 Cloudy with Mist and Fog 33 0.8 32 0 94 94 E 10 17 30.21 1023 5 8.0467 0 0
8:55 pm 20:55 Cloudy with Mist and Fog 33 0.8 32 0 94 94 E 10 17 30.21 1023 4 6.43736 0 0
9:15 pm 21:15 Cloudy with Mist and Fog 33 0.8 32 0 94 94 ESE 12 19 30.21 1023 2.5 4.02335 0 0
9:35 pm 21:35 Cloudy with Mist and Fog 33 0.7 32 0 95 95 ESE 12 19 30.21 1023 2.5 4.02335 0 0
9:55 pm 21:55 Cloudy with Mist and Fog 33 0.5 32 0 96 96 ESE 13 20 30.21 1023 4 6.43736 0 0
10:15 pm 22:15 Cloudy with Mist and Fog 32 0.2 31 -0.3 96 96 ESE 9 15 30.21 1023 2.5 4.02335 0 0
10:35 pm 22:35 Cloudy with Mist and Fog 32 0 31 -0.5 96 96 ESE 9 15 30.24 1024 1 1.60934 0 0
10:55 pm 22:55 Cloudy with Mist and Fog 32 0.1 31 -0.3 97 97 ESE 9 15 30.24 1024 0.75 1.207005 0 0
11:15 pm 23:15 Cloudy with Fog 32 0.1 32 -0.2 98 98 E 9 15 30.24 1024 0.5 0.80467 0 0
11:35 pm 23:35 Cloudy with Fog 33 0.3 32 -0.2 96 96 E 7 11 30.24 1024 0.5 0.80467 0 0
11:55 pm 23:55 Cloudy with Fog 32 0.2 32 -0.1 98 98 E 7 11 30.21 1023 0.5 0.80467 0 0

Powered by AerisWeather